[[{"header":{"parameterUnit":"m.s-1","parameterCategory":1,"la1":30.2991,"la2":30.254,"lo1":-89.0895,"lo2":-89.0444,"dy":0.0017,"dx":0.0017,"nx":28,"ny":28,"refTime":"2024-05-20T03:00:00:Z","depth":0,"parameterNumber":2,"parameterNumberName":"U-component_of_WINDS"},"data":[0,0,0,0,0,0,0,0,0,0,0,0,0,0,0,0,0,0,0,0,0,0,0,0,0,0,0,0,0,0,0,0,0,0,0,0,0,0,0,0,0,0,0,0,0,0,0,0,0,0,0,0,0,0,0,0,0,0,-0.9497,-0.9498,0,-0.9587,-0.9588,-0.9589,-0.9579,-0.9577,-0.9576,-0.9574,-0.967,-0.9674,-0.9678,0,0,0,0,0,0,0,0,0,0,0,0,0,-0.932,-0.9324,-0.9497,-0.9498,-0.9499,-0.9587,-0.9588,-0.9589,-0.9579,-0.9577,-0.9575,-0.9574,-0.9669,-0.9673,-0.9678,0,0,0,0,0,0,0,0,0,0,0,0,0,-0.9402,-0.9325,-0.9497,-0.9505,-0.9506,-0.9586,-0.9588,-0.9589,-0.9579,-0.9577,-0.9575,-0.9573,-0.9667,-0.9673,-0.9679,-0.9758,0,0,-0.9697,-0.9699,0,0,0,0,0,0,0,0,-0.9398,-0.9409,-0.9502,-0.9504,-0.9506,-0.9569,-0.9561,-0.9646,-0.958,-0.9552,-0.9574,-0.9572,-0.9639,-0.9647,-0.9668,-0.9762,-0.9767,-0.9697,-0.9701,-0.9703,-0.9705,0,0,0,0,0,0,0,-0.9392,-0.9405,-0.9533,-0.9504,-0.9506,-0.9505,-0.9514,-0.9577,-0.9606,-0.9554,-0.9553,-0.9564,-0.9639,-0.9663,-0.967,-0.9768,-0.9697,-0.9702,-0.9706,-0.9708,-0.9932,-0.9934,0,0,0,0,0,0,-0.9384,-0.94,-0.953,-0.9535,-0.9445,-0.951,-0.952,-0.9551,-0.9606,-0.9612,-0.9566,-0.9563,-0.9654,-0.9664,-0.9674,-0.9771,-0.9703,-0.9708,-0.9712,-0.993,-0.9933,-0.9935,0,0,0,0,0,0,-0.938,-0.9396,-0.9526,-0.9468,-0.9484,-0.9515,-0.955,-0.9554,-0.9578,-0.9614,-0.962,-0.9584,-0.9652,-0.9666,-0.9737,-0.9774,-0.9711,-0.9716,-0.9927,-0.9931,-0.9934,-0.9965,0,0,0,0,0,0,-0.9375,-0.9394,-0.9424,-0.9468,-0.9487,-0.9587,-0.9552,-0.9558,-0.9587,-0.9585,-0.9633,-0.9639,-0.9652,-0.9728,-0.9743,-0.9781,-0.9721,-0.9924,-0.9928,-0.9933,-0.996,-0.9969,-0.9976,0,0,0,0,0,-0.9369,-0.943,-0.9426,-0.9441,-0.9525,-0.9589,-0.96,-0.9612,-0.959,-0.9621,-0.9645,-0.9638,-0.9767,-0.9736,-0.9752,-0.9792,-0.9921,-0.9927,-0.9932,-0.9957,-0.9967,-0.9976,0,0,0,0,0,0,-0.9391,-0.9436,-0.9432,-0.9509,-0.9545,-0.9587,-0.9626,-0.9623,-0.9667,-0.9663,-0.9678,-0.9689,-0.9761,-0.9783,-0.9748,-0.9872,-0.9841,-0.985,-0.9855,-0.9865,-0.9872,-0.9866,-0.9726,0,0,0,0,0,-0.9404,-0.9451,-0.9489,-0.9553,-0.9571,-0.9596,-0.9624,-0.963,-0.9669,-0.9685,-0.9714,-0.9752,-0.9802,-0.9834,-0.9882,-0.9963,-0.9974,-0.9999,-1.0007,-1.0013,-1.0021,-1.0066,-1.0078,-0.9953,-0.9953,-0.9953,0,0,-0.9433,-0.9464,-0.9493,-0.9558,-0.9587,-0.9637,-0.9609,-0.9663,-0.97,-0.9693,-0.9762,-0.9785,-0.9829,-0.9906,-0.9941,-0.9927,-1.0057,-1.002,-1.0025,-1.0029,-1.0073,-1.0085,-1.0095,-0.9957,-0.9956,-0.9956,0,0,-0.9511,-0.9539,-0.9595,-0.9624,-0.9668,-0.9684,-0.9697,-0.974,-0.9754,-0.9823,-0.9819,-0.9864,-0.9949,-0.9981,-1.0008,-1.0097,-1.0093,-1.0113,-1.0154,-1.0198,-1.0207,-1.0216,-1.0249,-1.026,-1.012,-1.012,-1.012,0,-0.9542,-0.9616,-0.9625,-0.9679,-0.9709,-0.9703,-0.9761,-0.979,-0.9847,-0.9868,-0.9851,-0.9957,-0.9986,-1.007,-1.0092,-1.0114,-1.0131,-1.0108,-1.0205,-1.0214,-1.0222,-1.0254,-1.0266,-1.0122,-1.0122,-1.0122,-1.0122,0,-0.9652,-0.9703,-0.9743,-0.9797,-0.9831,-0.9887,-0.9906,-0.9939,-0.9942,-0.996,-1.0031,-1.0066,-1.012,-1.014,-1.0144,-1.0226,-1.0215,-1.0201,-1.0171,-1.0236,-1.0266,-1.0278,-1.0125,-1.0125,-1.0124,-1.0124,0,0,-0.9747,-0.9805,-0.982,-0.9844,-0.9892,-0.9932,-0.9988,-1.004,-1.0068,-1.0108,-1.0156,-1.0227,-1.0214,-1.0245,-1.0252,-1.0291,-1.036,-1.0272,-1.0274,-1.0288,-1.0452,-1.0463,-1.0477,-1.0357,-1.0359,-1.0361,-1.0449,0,-0.9831,-0.9928,-0.9938,-1.0026,-1.0074,-1.0069,-1.0118,-1.0152,-1.017,-1.0214,-1.0234,-1.0285,-1.0264,-1.0282,-1.032,-1.0343,-1.0393,-1.0337,-1.0403,-1.0405,-1.0392,-1.0492,-1.0504,-1.0585,-1.046,-1.0462,-1.0464,0,-0.9941,-0.9983,-1.0075,-1.0115,-1.0135,-1.0179,-1.0227,-1.0269,-1.0308,-1.0319,-1.0353,-1.0355,-1.0413,-1.038,-1.0461,-1.0423,-1.045,-1.0466,-1.0469,-1.0477,-1.0439,-1.0503,-1.0611,-1.0624,-1.0482,-1.048,-1.0479,0,-1.0003,-1.0082,-1.0147,-1.0168,-1.0216,-1.0247,-1.0269,-1.0306,-1.0336,-1.0379,-1.0399,-1.0448,-1.0476,-1.0514,-1.053,-1.0504,-1.0611,-1.0578,-1.0622,-1.0622,-1.0646,-1.0644,-1.0761,-1.0662,-1.0661,-1.0661,-1.0661,0,-1.0096,-1.0152,-1.0175,-1.0215,-1.0279,-1.029,-1.0353,-1.0374,-1.0407,-1.0452,-1.0451,-1.0493,-1.0511,-1.0556,-1.0569,-1.0635,-1.0647,-1.0658,-1.0661,-1.0658,-1.0657,-1.0677,-1.0672,-1.0665,-1.0664,-1.0663,-1.0663,0,-1.0176,-1.0193,-1.0264,-1.0303,-1.0314,-1.036,-1.0394,-1.0434,-1.045,-1.0507,-1.0521,-1.0548,-1.0601,-1.062,-1.0686,-1.0694,-1.0771,-1.0769,-1.0757,-1.0758,-1.0801,-1.0797,-1.0935,-1.0954,-1.0842,-1.0843,-1.0844,0,-1.0234,-1.0278,-1.0321,-1.035,-1.0373,-1.042,-1.0451,-1.0464,-1.0496,-1.0544,-1.0578,-1.063,-1.0673,-1.0759,-1.0785,-1.0835,-1.0835,-1.088,-1.0842,-1.0839,-1.0836,-1.0834,-1.0839,-1.0887,-1.0888,-1.0889,-1.089,0,-1.0337,-1.0343,-1.0386,-1.0433,-1.0469,-1.0507,-1.0544,-1.0568,-1.0586,-1.0623,-1.0677,-1.071,-1.0776,-1.0828,-1.0879,-1.0903,-1.09,-1.0901,-1.0914,-1.0913,-1.0905,-1.091,-1.0777,-1.0898,-1.0898,-1.0897,-1.0896,-1.0896,-1.0408,-1.0447,-1.0483,-1.0532,-1.056,-1.0594,-1.0633,-1.0654,-1.0699,-1.0753,-1.0757,-1.0816,-1.0854,-1.0922,-1.0948,-1.0994,-1.0982,-1.1,-1.1005,-1.101,-1.1013,-1.0896,-1.1003,-1.1003,-1.1003,-1.1003,-1.1003,0,-1.0511,-1.0534,-1.0579,-1.0629,-1.0668,-1.0659,-1.07,-1.0733,-1.0783,-1.0819,-1.0861,-1.0923,-1.0973,-1.1003,-1.1054,-1.1086,-1.1086,-1.1099,-1.1097,-1.1103,-1.1021,-1.1005,-1.1098,-1.1098,-1.1098,-1.1098,-1.1098,-1.1098,-1.0569,-1.0634,-1.0644,-1.0723,-1.0745,-1.0801,-1.0825,-1.0857,-1.0885,-1.0954,-1.0995,-1.1014,-1.1047,-1.11,-1.1147,-1.1154,-1.1174,-1.1188,-1.1195,-1.1118,-1.1108,-1.1099,-1.1084,-1.1192,-1.1192,-1.1273,-1.1273,-1.1274]},{"header":{"parameterUnit":"m.s-1","parameterCategory":1,"la1":30.2991,"la2":30.254,"lo1":-89.0895,"lo2":-89.0444,"dy":0.0017,"dx":0.0017,"nx":28,"ny":28,"refTime":"2024-05-20T03:00:00:Z","depth":0,"parameterNumber":3,"parameterNumberName":"V-component_of_WINDS"},"data":[0,0,0,0,0,0,0,0,0,0,0,0,0,0,0,0,0,0,0,0,0,0,0,0,0,0,0,0,0,0,0,0,0,0,0,0,0,0,0,0,0,0,0,0,0,0,0,0,0,0,0,0,0,0,0,0,0,0,-1.6137,-1.6137,0,-1.6195,-1.6196,-1.6196,-1.6179,-1.6178,-1.6177,-1.6175,-1.6234,-1.6236,-1.6239,0,0,0,0,0,0,0,0,0,0,0,0,0,-1.6009,-1.6012,-1.6137,-1.6137,-1.6138,-1.6195,-1.6196,-1.6197,-1.6179,-1.6178,-1.6176,-1.6175,-1.6233,-1.6236,-1.6239,0,0,0,0,0,0,0,0,0,0,0,0,0,-1.6066,-1.6013,-1.6137,-1.6136,-1.6137,-1.6195,-1.6196,-1.6197,-1.618,-1.6178,-1.6176,-1.6174,-1.6232,-1.6236,-1.624,-1.6301,0,0,-1.6252,-1.6254,0,0,0,0,0,0,0,0,-1.6063,-1.607,-1.6136,-1.6137,-1.6137,-1.6178,-1.6172,-1.6232,-1.618,-1.6163,-1.6175,-1.6173,-1.6217,-1.6222,-1.6237,-1.6304,-1.6306,-1.6252,-1.6255,-1.6257,-1.6258,0,0,0,0,0,0,0,-1.6059,-1.6068,-1.616,-1.6137,-1.6138,-1.6133,-1.6139,-1.6183,-1.6199,-1.6165,-1.6164,-1.6171,-1.6217,-1.6233,-1.6238,-1.6307,-1.6252,-1.6256,-1.6258,-1.626,-1.6427,-1.6429,0,0,0,0,0,0,-1.6054,-1.6065,-1.6158,-1.6162,-1.6095,-1.6137,-1.6144,-1.6167,-1.6199,-1.6202,-1.6172,-1.617,-1.6227,-1.6233,-1.624,-1.6314,-1.6257,-1.626,-1.6263,-1.6425,-1.6428,-1.643,0,0,0,0,0,0,-1.6052,-1.6063,-1.6156,-1.6113,-1.6124,-1.6141,-1.6167,-1.6169,-1.6185,-1.6205,-1.6207,-1.6186,-1.6226,-1.6234,-1.6286,-1.6316,-1.6262,-1.6266,-1.6423,-1.6426,-1.6429,-1.6462,0,0,0,0,0,0,-1.6048,-1.6062,-1.6086,-1.6114,-1.6127,-1.6201,-1.6169,-1.6171,-1.6192,-1.6189,-1.6218,-1.6221,-1.6225,-1.628,-1.629,-1.632,-1.6269,-1.642,-1.6424,-1.6428,-1.6459,-1.6466,-1.6472,0,0,0,0,0,-1.6044,-1.6093,-1.6087,-1.6098,-1.6157,-1.6203,-1.621,-1.6214,-1.6195,-1.6218,-1.6231,-1.622,-1.6311,-1.6286,-1.6297,-1.6328,-1.6418,-1.6423,-1.6427,-1.6455,-1.6465,-1.6472,0,0,0,0,0,0,-1.6068,-1.6096,-1.609,-1.615,-1.6174,-1.62,-1.623,-1.6224,-1.6254,-1.625,-1.6253,-1.6259,-1.6313,-1.6325,-1.6297,-1.6389,-1.6362,-1.6369,-1.6379,-1.6388,-1.6395,-1.6391,-1.6272,0,0,0,0,0,-1.608,-1.6115,-1.6138,-1.6189,-1.6201,-1.6214,-1.6234,-1.6235,-1.626,-1.627,-1.6286,-1.6311,-1.6344,-1.6367,-1.6399,-1.646,-1.6466,-1.6487,-1.6494,-1.65,-1.6506,-1.6539,-1.6549,-1.6445,-1.6445,-1.6445,0,0,-1.6105,-1.6125,-1.6148,-1.6194,-1.6213,-1.6249,-1.6222,-1.6262,-1.6289,-1.6276,-1.6326,-1.6339,-1.6366,-1.6423,-1.6449,-1.6435,-1.6536,-1.6506,-1.651,-1.6513,-1.6545,-1.6555,-1.6564,-1.6448,-1.6447,-1.6447,0,0,-1.6171,-1.619,-1.6234,-1.6253,-1.6282,-1.629,-1.6301,-1.6328,-1.6336,-1.6386,-1.6377,-1.6409,-1.6467,-1.6487,-1.6505,-1.6578,-1.6569,-1.6588,-1.6624,-1.6657,-1.6665,-1.6672,-1.6698,-1.6708,-1.6594,-1.6594,-1.6594,0,-1.6199,-1.6254,-1.6257,-1.6298,-1.6318,-1.6308,-1.6353,-1.6371,-1.6409,-1.6423,-1.6408,-1.6481,-1.6499,-1.656,-1.6578,-1.6592,-1.6604,-1.6585,-1.6664,-1.6671,-1.6678,-1.6703,-1.6713,-1.6596,-1.6596,-1.6596,-1.6595,0,-1.6287,-1.6325,-1.6357,-1.6395,-1.6419,-1.6461,-1.647,-1.6494,-1.6493,-1.6502,-1.6553,-1.6574,-1.6611,-1.6625,-1.6624,-1.6686,-1.6677,-1.6663,-1.6635,-1.669,-1.6713,-1.6723,-1.6599,-1.6598,-1.6598,-1.6597,0,0,-1.637,-1.6408,-1.642,-1.6437,-1.6468,-1.6498,-1.6539,-1.6575,-1.6596,-1.6622,-1.6657,-1.6707,-1.6693,-1.6714,-1.6714,-1.6743,-1.6799,-1.6725,-1.6725,-1.6738,-1.687,-1.6881,-1.6892,-1.6793,-1.6795,-1.6797,-1.6867,0,-1.6438,-1.6512,-1.6516,-1.6583,-1.6618,-1.6609,-1.6645,-1.6668,-1.6678,-1.6709,-1.6719,-1.6755,-1.6734,-1.6747,-1.6774,-1.6787,-1.6826,-1.6781,-1.6826,-1.6827,-1.682,-1.6904,-1.6916,-1.6982,-1.6877,-1.6878,-1.6879,0,-1.6528,-1.6558,-1.6628,-1.6655,-1.6669,-1.6702,-1.6735,-1.6765,-1.6791,-1.6796,-1.6819,-1.6815,-1.6857,-1.6828,-1.6886,-1.6856,-1.6874,-1.6883,-1.6885,-1.689,-1.6857,-1.6911,-1.7003,-1.7013,-1.6894,-1.6893,-1.6891,0,-1.6581,-1.6639,-1.6689,-1.6703,-1.6735,-1.6758,-1.6773,-1.6796,-1.6818,-1.6847,-1.6861,-1.6894,-1.6912,-1.6937,-1.6943,-1.6921,-1.7001,-1.6972,-1.7007,-1.7007,-1.7024,-1.7023,-1.7121,-1.7035,-1.7035,-1.7035,-1.7035,0,-1.6658,-1.6701,-1.6713,-1.6744,-1.6793,-1.6796,-1.6844,-1.6857,-1.6878,-1.6911,-1.6904,-1.6935,-1.694,-1.6972,-1.6976,-1.7024,-1.7032,-1.7037,-1.7038,-1.7038,-1.7038,-1.705,-1.7046,-1.7038,-1.7037,-1.7037,-1.7036,0,-1.6726,-1.6736,-1.679,-1.6815,-1.6823,-1.6857,-1.6879,-1.6909,-1.6917,-1.6959,-1.6969,-1.6983,-1.702,-1.7028,-1.7071,-1.7074,-1.7131,-1.7127,-1.7123,-1.7123,-1.7157,-1.7154,-1.7266,-1.7281,-1.7186,-1.7187,-1.7187,0,-1.6774,-1.6808,-1.6837,-1.6859,-1.6874,-1.6909,-1.6931,-1.6936,-1.6959,-1.699,-1.7016,-1.7052,-1.7082,-1.7141,-1.7155,-1.7188,-1.7185,-1.7222,-1.719,-1.7189,-1.7186,-1.7185,-1.7188,-1.7229,-1.723,-1.7231,-1.7231,0,-1.6859,-1.6862,-1.6894,-1.6928,-1.6955,-1.6982,-1.7007,-1.7025,-1.7033,-1.7059,-1.7097,-1.712,-1.7165,-1.7201,-1.7234,-1.7248,-1.7241,-1.7241,-1.7251,-1.7252,-1.7248,-1.7251,-1.714,-1.7239,-1.7238,-1.7237,-1.7237,-1.7237,-1.6919,-1.6949,-1.6974,-1.701,-1.703,-1.7054,-1.7083,-1.7095,-1.7127,-1.7165,-1.7165,-1.7207,-1.7231,-1.7275,-1.7291,-1.7324,-1.7312,-1.7326,-1.733,-1.7333,-1.7337,-1.7243,-1.733,-1.7329,-1.7329,-1.7329,-1.7329,0,-1.7004,-1.702,-1.7053,-1.7089,-1.7117,-1.7108,-1.7136,-1.716,-1.7197,-1.7221,-1.725,-1.7293,-1.7328,-1.7345,-1.7379,-1.7402,-1.74,-1.7411,-1.741,-1.7413,-1.7345,-1.7333,-1.7412,-1.7412,-1.7412,-1.7412,-1.7412,-1.7412,-1.7052,-1.7101,-1.7107,-1.7166,-1.7181,-1.7223,-1.7239,-1.7261,-1.728,-1.7329,-1.7359,-1.7369,-1.739,-1.7426,-1.7458,-1.7461,-1.7475,-1.7488,-1.749,-1.7426,-1.7418,-1.741,-1.7399,-1.749,-1.749,-1.7555,-1.7556,-1.7557]}]]